Regional Weather Roundup
Issued by NWS

Home | Current Version | Previous Version | Text Only | Print | Product List | Glossary On
Versions: 1 2 3 4 5 6 7 8 9 10 11 12 13 14 15 16 17 18 19 20 21 22 23 24 25 26 27 28 29 30 31 32 33 34 35 36 37 38 39 40 41 42 43 44 45 46 47 48 49 50
000
ASUS46 KLOX 190212
RWRCA

SOUTHERN CALIFORNIA WEATHER ROUNDUP
NATIONAL WEATHER SERVICE OXNARD CALIFORNIA
700 PM PDT FRI APR 18 2014

NOTE: "FAIR" INDICATES FEW OR NO CLOUDS BELOW 12,000 FEET WITH NO
SIGNIFICANT WEATHER AND/OR OBSTRUCTIONS TO VISIBILITY.

  -  STATIONS PRECEEDED BY AN ASTERISK (*) ARE NOT NWS OR FAA
     STATIONS AND ARE NOT SUBJECT TO NWS AND FAA QUALITY CONTROL.

CAZ041-042-087-190300-
LA AND ORANGE COUNTY COASTAL AREAS


CITY           SKY/WX    TMP DP  RH WIND       PRES   REMARKS
L.A. DOWNTOWN  CLEAR     65  52  62 CALM      29.88S
L.A. AIRPORT   MOCLDY    64  53  67 W10       29.89S
LONG BEACH     CLEAR     66  51  58 NW8       29.88S

CITY           SKY/WX    TMP DP  RH WIND       PRES   REMARKS
AVALON           N/A     63 N/A N/A MISG        N/A
FULLERTON      CLEAR     66  52  60 S7        29.88R
*GETTY CENTER    N/A     61  50  67 SW7         N/A
HAWTHORNE      CLEAR     64  51  62 W6        29.89S
*LOS ALAMITOS  PTCLDY    64  52  63 S6        29.89R
*REDONDO BEACH   N/A     62  55  79 W2        29.88S
SANTA ANA      MOCLDY    66  51  58 SW6       29.89R
STA MONICA APT CLEAR     67  52  58 W7        29.89S
TORRANCE       PTCLDY    64  55  72 W12       29.90R
*UCLA            N/A     63  50  63 SW7       29.86S

$$

CAZ547-548-048-190300-
LA COUNTY VALLEYS AND INLAND EMPIRE


CITY           SKY/WX    TMP DP  RH WIND       PRES   REMARKS
BURBANK        CLEAR     66  50  56 S7        29.87S
VAN NUYS       CLEAR     67  49  52 SE6       29.87R

CITY           SKY/WX    TMP DP  RH WIND       PRES   REMARKS
CORONA AIRPORT PTCLDY    66  52  60 W10       29.88R
*CHATSWORTH      N/A     66  53  63 W3        29.85S
CHINO          PTCLDY    65  52  62 W15       29.88R
*CLAREMONT       N/A     62  47  58 SW7         N/A
MARCH AFB      MOCLDY    66  52  59 W15       29.88R
ONTARIO        MOCLDY    66  51  58 SW13      29.87R
*PASADENA        N/A     66  54  63 NE1         N/A
POMONA         CLEAR     66  50  55 W12       29.90
RIVERSIDE      PTCLDY    66  52  60 W12G20    29.87R
SAN BERNARDINO PTCLDY    66  48  52 SW13      29.87R
*SAN GABRIEL     N/A     67  51  54 SW9       29.85S
*WHITEMAN AP   CLEAR     66  50  55 SE8       29.91S
*WOODLAND HILL   N/A     66  52  59 NW5         N/A

$$

CAZ054-055-190300-
LA AND SAN BERNARDINO COUNTY MOUNTAINS


CITY           SKY/WX    TMP DP  RH WIND       PRES   REMARKS
*ACTON           N/A     63  48  58 W6          N/A
*BIG BEAR AIRP MOCLDY    48  34  57 CALM      30.03S
*BIG PINES       N/A     47  35  62 CALM        N/A
*CHILAO          N/A     58  48  69 NW5         N/A
MT WILSON NWS    N/A     55  37  50 SW3         N/A
SANDBERG       PTCLDY    58  47  66 SW9       29.96R
*WARM SPRINGS    N/A     57  49  75 SW3         N/A

$$

CAZ028-029-059-060-099-190300-
ANTELOPE VALLEY AND SURROUNDING AREAS


CITY           SKY/WX    TMP DP  RH WIND       PRES   REMARKS
LANCASTER      PTCLDY    64  48  56 SW18G24   29.86R
PALMDALE       PTCLDY    66  47  50 SW16      29.87R

CITY           SKY/WX    TMP DP  RH WIND       PRES   REMARKS
29 PALMS       MOCLDY    75  32  20 SW12      29.91R
BARSTOW/DAGGET CLOUDY    79  32  18 S9        29.80R
BISHOP         CLOUDY    72  33  24 W12G21    29.83R
CHINA LAKE     MOCLDY    78  38  23 S17G23    29.78S
EDWARDS AFB    MOCLDY    71  46  39 SW14G22   29.83R
MOJAVE         FAIR      68  43  40 W22       29.85R
NEEDLES        CLOUDY    83  31  15 SW13      29.80R
VICTORVILLE    MOCLDY    68  30  24 SW13      29.87R

$$

CAZ039-040-190300-
VENTURA AND SANTA BARBARA COUNTY COAST


CITY           SKY/WX    TMP DP  RH WIND       PRES   REMARKS
CAMARILLO      CLEAR     63  53  70 W12       29.89S
NWS OXNARD       N/A     62  53  73 W6        29.89S
OXNARD AIRPORT CLEAR     60  54  80 W8        29.90R
*POINT MUGU    PTCLDY    64  54  69 W10       29.89S
SBA APT/GOLETA PTCLDY    64  52  64 W8        29.89R
*SANTA BARBARA   N/A     65  50  58 NE6       29.97S
*VENTURA         N/A     63  52  67 W5        29.93S

$$

CAZ044-045-190300-
VENTURA COUNTY VALLEYS


CITY           SKY/WX    TMP DP  RH WIND       PRES   REMARKS
*SIMI VALLEY     N/A     62  52  68 SW3       29.87R
*OJAI            N/A     63  52  66 CALM      29.84S
*FILLMORE        N/A     65  52  64 W5        29.80R

$$

CAZ053-190300-
VENTURA COUNTY MOUNTAINS


CITY           SKY/WX    TMP DP  RH WIND       PRES   REMARKS
*LOCKWOOD VLY    N/A     57  41  54 MISG        N/A
*ROSE VALLEY     N/A     55  54  94 MISG        N/A

$$

CAZ034-035-036-190300-
CENTRAL COAST AND SANTA YNEZ VALLEY


CITY           SKY/WX    TMP DP  RH WIND       PRES   REMARKS
SAN LUIS OBISP MOCLDY    57  50  77 NW12      29.93S
SANTA MARIA    CLOUDY    56  48  74 NW8       29.95S

CITY           SKY/WX    TMP DP  RH WIND       PRES   REMARKS
*CAL POLY SLO    N/A     57  52  82 NW6         N/A
*CAMBRIA         N/A     53  50  90 SE1       29.83S
*LOMPOC        CLOUDY    55  46  71 NW8       29.97S
*PISMO BEACH     N/A     57  52  81 E3        29.94S
*SANTA YNEZ    CLOUDY    55  46  71 W12       29.94R

$$

CAZ037-038-051-190300-
SAN LUIS OBISPO COUNTY INTERIOR AND CUYAMA VALLEY


CITY           SKY/WX    TMP DP  RH WIND       PRES   REMARKS
*CUYAMA          N/A     62  46  57 W16       29.74R
PASO ROBLES    CLEAR     59  48  67 SW18      29.88R

$$

CAZ032-033-061-190300-
SOUTHERN DESERTS


CITY           SKY/WX    TMP DP  RH WIND       PRES   REMARKS
BLYTHE         CLOUDY    74  49  41 SE16      29.82S
IMPERIAL       CLOUDY    80  53  39 SE10      29.77R
PALM SPRINGS   MOCLDY    77  43  29 S17G28    29.81S
THERMAL        CLOUDY    81  44  27 W13       29.77R

$$

ELSEWHERE ACROSS THE WESTERN UNITED STATES AND MEXICO


CITY           SKY/WX    TMP DP  RH WIND       PRES   REMARKS
DENVER, CO     CLOUDY    67  27  22 N12       29.86R
GRAND CANYON,  CLOUDY    52  32  46 S8        30.09S
HONOLULU, HI   MOSUNNY   82  64  54 NE17G25   30.05F
KAHULUI, MAUI  MOSUNNY   81  66  61 NE26G33   30.04R
LAKE TAHOE, CA CLOUDY    50  43  77 CALM      30.00F
LAS VEGAS, NV  MOCLDY    79  27  14 S9        29.77S
MAMMOTH LAKES, CLOUDY    52  32  46 W9        30.01S
MEXICO CITY, M TSTM      57  52  82 NW16      30.36R
PHOENIX, AZ    CLOUDY    80  38  22 NE10      29.82F
PORTLAND, OR   CLOUDY    58  40  51 NW7       29.98F
RENO, NV       MOCLDY    66  39  37 W20G26    29.91R
SALT LAKE CITY MOCLDY    59  43  55 NW7       29.91F
SAN DIEGO, CA  MOCLDY    65  52  62 NW5       29.92R
SAN FRANCISCO, PTCLDY    58  46  64 W13G21    29.91R
SAN JOSE, CA   PTCLDY    62  48  60 W13       29.91R
SEATTLE, WA    MOCLDY    56  33  42 E6        30.03F
TIJUANA, MEX   CLOUDY    61  50  67 W9        29.93R

$$

STATION/POSITION TIME  TEMP    WIND        PRES    VSBY  WAVE
                       AIR SEA DIR/SP/G                  HT/PER
                 (UTC) (F)     (DEG/KT/KT) (MB)    (MI)  (FT/S)
POINT ARGUELLO B NOT AVBL
WEST SANTA BARBA 0200   55 56  320/ 19/ 23 1013.1S         7/11
POINT CONCEPTION NOT AVBL
EAST SANTA BARBA NOT AVBL
SANTA MONICA BAY 0200   60 62  310/  8/ 10 1012.1R         4/11



USA.gov is the U.S. government's official web portal to all federal, state and local government web resources and services.